Miscellaneous Local Product
Issued by NWS North Platte, NE

Current Version | Previous Version | Text Only | Print | Product List | Glossary On
Versions: 1 2 3 4 5 6 7 8 9 10 11 12 13 14 15 16 17 18 19 20 21 22 23 24 25 26 27 28 29 30 31 32 33 34 35 36 37 38 39 40 41 42 43 44 45 46 47 48 49 50
000
AXUS43 KLBF 170810
MISLBF


WESTERN AND NORTH CENTRAL NEBRASKA HOURLY WEATHER ROUNDUP
NATIONAL WEATHER SERVICE NORTH PLATTE NE
300 AM CDT WED SEP 17 2014

***STATIONS NOT REPORTING VARIABLES SUCH AS SKY/WEATHER OR
PRESSURE ARE PROVIDED BY THE NEBRASKA DEPARTMENT OF
ROADS...RAWS...AND APRS NETWORKS...AND ARE NOT UNDER
NATIONAL WEATHER SERVICE QUALITY CONTROL***

...OBSERVATIONS IN AND NEAR THE EASTERN PANHANDLE OF NEBRASKA...

CITY           SKY/WX    TMP DP  RH WIND       PRES   REMARKS
PINE RIDGE     PTCLDY    48  46  93 E3        29.98S
CHADRON        MOCLDY    54  50  86 SW6       29.96F
ALLIANCE       PTCLDY    46  43  89 S6        30.00S
SIDNEY         CLEAR     52  46  80 W10       30.05R
WHITECLAY        N/A     51  46  86 E6          N/A
RUSHVILLE        N/A     53  49  87 SE5         N/A
CRESCENT LAKE    N/A     57  51  80 CALM        N/A
LISCO            N/A     54  49  82 SW3         N/A
BIG SPRINGS      N/A     54  51  90 CALM        N/A
$$

...OBSERVATIONS IN NORTH CENTRAL NEBRASKA...

CITY           SKY/WX    TMP DP  RH WIND       PRES   REMARKS
VALENTINE      CLEAR     49  48  97 NW3       29.94F
THEDFORD       CLEAR     54  53  97 CALM      29.98S
O`NEILL        CLEAR     53  53 100 S7        29.95S
ORD            FOG       46  46 100 CALM      29.94F VSB 1/4
BROKEN BOW     PTCLDY    46  45  96 CALM      29.96S FOG
SPRINGVIEW       N/A     50  48  93 CALM        N/A
ROSE             N/A     55  55 100 SE5         N/A
NEWPORT          N/A     55  55  99 SW6         N/A
COMSTOCK         N/A     53  53  99 CALM        N/A
CHAMBERS         N/A     52  50  93 CALM        N/A
$$

...OBSERVATIONS IN SOUTHWEST NEBRASKA AND FAR NORTHEAST COLORADO...

CITY           SKY/WX    TMP DP  RH WIND       PRES   REMARKS
WRAY           FAIR      53  48  85 SW7       30.00F
HOLYOKE        FAIR      54  50  87 W3        30.01F
IMPERIAL       MOCLDY    51  49  92 CALM      29.99S
OGALLALA       CLEAR     54  53  95 CALM      29.99S
NORTH PLATTE   FOG       48  48 100 CALM      29.97F VSB 3/4
MCCOOK         CLEAR     53  51  93 NW6       29.96S FOG
LEXINGTON      CLEAR     49  48  97 N5        29.95F FOG
PAXTON           N/A     59  56  91 CALM        N/A
SUTHERLAND       N/A     52  49  90 CALM        N/A
BRADY            N/A     50  48  93 CALM        N/A
GOTHENBURG       N/A     53  50  89 CALM        N/A
CALLAWAY         N/A     53  52  96 SE5         N/A
$$

...SOME WEATHER OBSERVATIONS FROM AROUND THE REGION...

CITY           SKY/WX    TMP DP  RH WIND       PRES   REMARKS
DENVER         PTCLDY    59  40  49 S16       30.09F
LARAMIE        CLEAR     47  34  60 S7        30.22S
CHEYENNE       CLEAR     57  37  47 W8        30.14F
SCOTTSBLUFF    PTCLDY    58  47  66 NE3       30.00F
RAPID CITY     CLEAR     55  45  68 W6        29.95S
PIERRE         CLEAR     50  48  93 CALM      29.89R
WINNER         FAIR      61  56  83 SW7       29.91F
SIOUX FALLS    CLOUDY    58  50  75 S5        29.95S
OMAHA          CLOUDY    62  53  72 SE6       29.97F
GRAND ISLAND   CLEAR     55  50  83 CALM      29.95R
KANSAS CITY    CLOUDY    63  58  83 SE7       29.98F
WICHITA        PTCLDY    65  63  93 S6        29.96F
HAYS           CLEAR     63  57  82 S9        29.91F
LIBERAL        CLEAR     63  57  82 S9        30.02S
GOODLAND       CLEAR     57  51  80 SW8       30.00S
$$



USA.gov is the U.S. government's official web portal to all federal, state and local government web resources and services.